www.pogodaiklimat.ru

Погода и климат >> Архив погоды >> Алжир >> Mascara Ghriss


ПОГОДА в Mascara Ghriss

  • Прогноз погоды в Mascara Ghriss
  • Монитор погоды в Mascara Ghriss
  • Климат города

АРХИВ ПОГОДЫ в Mascara Ghriss

Время (UTC), дата Ветер
(напр.,м/с)
 
Видим.   Явления Облачность Т
(С)
Тd
(С)
f
(%)
Тe
(С)
Тes
(С)
Комфортность P
(гПа)
Po
(гПа)
Тmin
(С)
Tmax
(С)
R
(мм)
R24
(мм)
S
(см)
15 9.10 Ю 6 10 км 8/4 800 м
[Sc Ac trans]
+23.0 +12.9 53 +26 +27 жарко 1009.2 1009.0
18 9.10 Ю 5 10 км 8/5 800 м
[Sc Ci sp]
+20.3 +14.9 71 +23 +23 комфорт 1009.0 1009.0 +23.0 3
21 9.10 Ю 4 10 км 8/4 800 м
[Sc Ci sp]
+18.5 +14.1 76 +19 +19 1009.6 1010.0
00 10.10 штиль 0 10 км 8/4 800 м
[Sc Ci sp]
+16.4 +14.7 90 +16 +16 1010.4 1010.0
03 10.10 штиль 0 10 км 8/4 800 м
[Sc Ci sp]
+16.5 +13.6 83 +16 +16 1008.9 1009.0
06 10.10 ЮВ 3 10 км 9/6 800 м
[Sc Ci sp]
+17.4 +13.3 77 +17 +17 1008.6 1009.0 +15.1 3
09 10.10 ЮВ 2 15 км 6/1 900 м
[Sc Ac trans Ci sp]
+23.1 +13.8 56 +27 +30 душно 1008.5 1009.0
12 10.10 З 5 20 км 8/5 800 м
[Cu med, cong Ac cast]
+28.0 +14.3 43 +30 +32 жарко 1008.1 1008.0
15 10.10 С 4 20 км 3/3 800 м
[Cb cap]
+27.5 +10.8 35 +28 +31 жарко 1006.5 1007.0
18 10.10 ЮВ 3 10 км {дождь} 1/1 800 м
[Cu med, cong]
+20.5 +15.6 73 +24 +24 комфорт 1008.9 1009.0 +28.5 1
21 10.10 ЮВ 1 10 км 1/1 800 м
[Cu med, cong]
+18.0 +15.2 84 +19 +19 1011.2 1011.0
00 11.10 штиль 0 10 км ясно +15.3 +13.9 91 1011.8 1011.7
03 11.10 штиль 0 10 км ясно +13.8 +12.6 92 +13 +13 1012.0 1012.0
06 11.10 штиль 0 15 км ясно +13.2 +12.7 97 +13 +13 1013.0 1013.0 +13.2 1
09 11.10 З 1 10 км 3/0
[Ci sp]
+22.4 +18.0 76 +27 +33 душно 1014.1 1014.0
12 11.10 СЗ 1 10 км в посл. час дождь 9/6 800 м
[Sc Ac cast]
+23.5 +16.0 63 +27 +29 душно 1015.5 1016.0 0.1
15 11.10 З 2 15 км 8/5 800 м
[Sc Ac cast]
+26.1 +16.5 55 +30 +31 душно 1015.6 1016.0
18 11.10 СВ 3 10 км 6/4 800 м
[Sc Ci sp]
+21.5 +15.3 68 +25 +25 комфорт 1017.7 1018.0 +26.1 0.1
21 11.10 СВ 2 10 км 6/4 800 м
[Sc Ci sp]
+19.9 +15.6 76 +23 +23 комфорт 1019.3 1019.0
00 12.10 Ю 1 10 км 4/3 800 м
[Sc Ci sp]
+16.4 +14.5 89 +17 +17 1020.3 1020.0
03 12.10 ЮВ 1 10 км 3/0
[Ci sp]
+14.6 +13.5 93 +15 +15 1020.2 1020.0
06 12.10 ЮВ 3 10 км 3/1 800 м
[Sc Ci sp]
+15.2 +13.1 87 +15 +15 1021.4 1021.0 +14.0 0.1
09 12.10 штиль 0 20 км 3/0
[Ci sp]
+21.7 +15.7 69 +25 +32 комфорт 1022.5 1023.0
12 12.10 СВ 3 30 км 5/4 800 м
[Cu med, cong Ci fib]
+26.0 +16.1 54 +29 +35 душно 1021.8 1022.0
15 12.10 С 3 30 км 5/4 800 м
[Cu med, cong Ci fib]
+28.3 +15.6 46 +31 +34 душно 1020.3 1020.0
18 12.10 СВ 4 15 км 4/3 800 м
[Cu med, cong Ci fib]
+23.9 +15.7 60 +27 +27 жарко 1020.7 1021.0 +28.4
21 12.10 СВ 4 10 км 3/0
[Ci fib]
+19.1 +15.7 81 +20 +20 1021.7 1022.0
00 13.10 ЮЗ 3 10 км 3/0
[Ci fib]
+16.3 +14.8 91 +16 +16 1020.9 1021.0
03 13.10 В 1 10 км 3/0
[Ci fib]
+15.0 +13.8 93 +15 +15 1019.2 1019.0
06 13.10 штиль 0 10 км 4/0
[Ci fib]
+13.8 +12.7 93 +13 +13 1019.4 1019.0 +13.3
09 13.10 штиль 0 25 км 3/0
[Ci fib]
+22.5 +15.9 66 +27 +33 душно 1019.0 1019.0
12 13.10 штиль 0 25 км 4/4 900 м
[Cu med, cong]
+30.0 +15.9 43 +33 +42 душно 1016.7 1017.0
15 13.10 В 2 25 км 4/4 900 м
[Cu med, cong]
+31.6 +12.6 31 +32 +35 жарко 1014.0 1014.0
18 13.10 СВ 3 15 км 1/1 900 м
[Sc]
+26.4 +15.0 50 +29 +29 жарко 1014.1 1014.0 +31.6
21 13.10 штиль 0 10 км ясно +22.5 +14.2 59 +26 +26 жарко 1013.4 1013.0
00 14.10 штиль 0 10 км ясно +19.7 +14.3 71 +21 +21 комфорт 1011.8 1012.0
03 14.10 штиль 0 10 км ясно +16.5 +14.8 90 +16 +16 1010.6 1011.0
06 14.10 штиль 0 10 км 1/0
[Ci sp]
+13.6 +11.5 87 +13 +13 1010.7 1011.0 +13.6
09 14.10 штиль 0 20 км 4/0
[Ci sp]
+23.5 +12.7 51 +26 +32 жарко 1010.7 1011.0
12 14.10 СЗ 4 20 км 6/4 900 м
[Cu med, cong Ci sp]
+30.9 +14.7 37 +33 +37 душно 1009.1 1009.0
15 14.10 С 5 15 км 8/6 900 м
[Cu med, cong Ci sp]
+28.5 +15.3 45 +31 +32 душно 1007.7 1008.0
18 14.10 СЗ 5 10 км в посл. час гроза {ливн. осадки} 8/8 900 м
[Cb cap]
+22.5 +16.6 69 +27 +27 душно 1010.7 1011.0 +31.3 0.3
21 14.10 штиль 0 10 км {дождь} 6/6 800 м
[Sc]
+18.4 +17.4 94 +19 +19 1011.3 1011.0
00 15.10 СЗ 5 10 км {дождь} 6/6 800 м
[Sc]
+17.7 +15.8 89 +17 +17 1011.4 1011.0 0.7
03 15.10 З 5 10 км 6/6 800 м
[Cu Sc]
+16.0 +12.5 80 +15 +15 1012.1 1012.0
06 15.10 З 2 10 км 9/9 700 м
[St]
+15.3 +14.3 94 +15 +15 1013.2 1013.0 +15.2 1
09 15.10 З 3 15 км 6/6 800 м
[Cu med, cong]
+17.6 +10.1 61 +18 +19 1014.9 1015.0
12 15.10 З 5 20 км 8/4 800 м
[Cu med, cong Ac trans Ci sp]
+20.2 +7.6 44 +21 +24 комфорт 1013.4 1013.0
15 15.10 З 4 20 км 5/1 800 м
[Sc Ac trans Ci sp]
+23.2 +7.4 36 +24 +26 комфорт 1011.6 1012.0
18 15.10 С 4 10 км 8/4 800 м
[Sc Ac trans]
+17.6 +10.8 64 +17 +17 1012.8 1013.0 +23.2
21 15.10 СВ 1 10 км 5/1 800 м
[Sc Ac cast]
+14.1 +10.6 79 +14 +14 1013.7 1014.0
00 16.10 В 2 10 км 3/1 800 м
[Sc Ac cast]
+12.4 +10.4 88 +11 +11 1012.4 1012.0
03 16.10 З 2 10 км 3/1 800 м
[Sc Ac cast]
+9.5 +8.7 95 +8 +8 1012.0 1012.0
06 16.10 Ю 2 10 км 5/4 800 м
[Sc Ac cast]
+11.8 +9.1 84 +11 +11 1012.7 1013.0 +9.5
09 16.10 Ю 2 6000 м дождь 10/10 700 м
[St]
+12.8 +12.2 96 +12 +12 1014.9 1015.0
12 16.10 З 1 6000 м 10/10 400 м
[St]
+14.0 +13.5 97 +14 +14 1014.6 1015.0 5

 

Местоположение метеостанции Mascara Ghriss (Алжир): широта 35.22 долгота 0.15 высота над уровнем моря 513 м.

В архиве по умолчанию представлена погода в Mascara Ghriss за последнюю неделю. Архивные данные за месяц целиком и за предыдущие месяцы, начиная с января 2011 года, Вы можете получить, выбрав интересующий диапазон дат из раскрывающегося списка и нажав кнопку "Ввод!".


*Определитесь, кто Вы:
робот инопланетянин человек

Внимание! Время в таблицах - всемирное. Для получения местного времени необходимо прибавить поправку, которая в Mascara Ghriss равна 1 ч.

Смотрите также архив погоды в соседних городах и на ближайших метеорологических станциях:

Погода в Saida (Алжир) (39 км)
Погода в Relizane (Алжир) (67 км)
Погода в Oran Tafaraoui (Алжир) (67 км)
Погода в Sidi Bel Abbes (Алжир) (70 км)
Погода в Mostaganem Ville (Алжир) (73 км)
Погода в Arzew (Алжир) (77 км)
Погода в Oran (Es Senia) (Алжир) (82 км)
Погода в Oran-Port (Алжир) (90 км)
Погода в El Kheit (Алжир) (119 км)
Погода в Tiaret (Алжир) (121 км)

Пояснения к столбцам:

Ветер - указаны скорость ветра в м/с - средняя за 10 мин, порывы в срок и между сроками (в фигурных скобках) и направление, откуда дует ветер: С - северный, СВ - северо-восточный, В - восточный, ЮВ - юго-восточный, Ю - южный, ЮЗ - юго-западный, З - западный, СЗ - северо-западный.
Видимость - горизонтальная дальность видимости в метрах или километрах. При видимости от 1 до 10 км при отсутствии осадков обычно наблюдается дымка, при ухудшении видимости до 1 км и менее - туман. В сухую погоду видимость может ухудшаться дымом, пылью или мглою.
Явления - указаны атмосферные явления, наблюдавшиеся в срок или в последний час перед сроком; фигурными скобками обозначены явления, наблюдавшиеся между сроками (за 1-3 часа до срока); квадратными скобками обозначены град или гололедные отложения с указанием их диаметра в мм.
Облачность - указаны через наклонную черту общая и нижняя облачность в баллах и высота нижней границы облаков в метрах; квадратными скобками обозначены формы облаков: Ci - перистые, Cs - перисто-слоистые, Cc - перисто-кучевые, Ac - высококучевые, As - высокослоистые, Sc - слоисто-кучевые, Ns - слоисто-дождевые, Cu - кучевые, Cb - кучево-дождевые. Подробнее классификацию облаков см. в Атласе облаков (PDF).
T - Температура воздуха - температура, измеренная на высоте 2 м над землей.
Td - Температура точки росы - температура, при понижении до которой содержащийся в воздухе водяной пар достигнет насыщения.
f - Относительная влажность воздуха - влажноcть воздуха, измеренная на высоте 2 м над землей.
Te - Эффективная температура - температура, которую ощущает одетый по сезону человек в тени. Характеристика душности погоды. При расчете учитывается влияние влажности воздуха и скорости ветра на теплоощущения человека.
Tes - Эффективная температура на солнце - температура, которую ощущает человек, с поправкой на солнечный нагрев. Характеристика знойности погоды. Зависит от высоты солнца над горизонтом, облачности и скорости ветра. Ночью, в пасмурную погоду, а также при ветре 12 м/с и более поправка равна нулю.
P - Атмосферное давление - приведенное к уровню моря атмосферное давление.
Po - Атмосферное давление - измеренное на уровне метеостанции атмосферное давление.
Tmin - Минимальная температура - минимум температуры воздуха на высоте 2 м над землей.
Tmax - Максимальная температура - максимум температуры воздуха на высоте 2 м над землей.
R - Количество осадков - Количество выпавших осадков за период времени, мм. При наведении курсора мыши на число - период времени, за который выпало указанное количество осадков.
R24 - Количество осадков - Количество выпавших осадков за 24 часа, мм.
S - Снежный покров - Высота снежного покрова, см. При наведении курсора мыши на число - состояние снежного покрова и степень покрытия местности в баллах.